Time,TemperatureF,DewpointF,PressureIn,WindDirection,WindDirectionDegrees,WindSpeedMPH,WindSpeedGustMPH,Humidity,HourlyPrecipIn,Conditions,Clouds,dailyrainin,SoftwareType,DateUTC
2013-01-19 00:00:00,29.0,14.4,30.08,SSW,202,8.0,13.0,54,0.00,,---,0.00,VWS V14.01,2013-01-19 05:00:00,
2013-01-19 00:01:00,29.0,14.4,30.08,South,180,6.0,13.0,54,0.00,,---,0.00,VWS V14.01,2013-01-19 05:01:00,
2013-01-19 00:02:00,29.0,14.0,30.08,South,180,6.0,13.0,53,0.00,,---,0.00,VWS V14.01,2013-01-19 05:02:00,
2013-01-19 00:04:00,29.0,13.6,30.08,SE,135,16.0,16.0,52,0.00,,---,0.00,VWS V14.01,2013-01-19 05:04:00,
2013-01-19 00:09:00,29.0,14.0,30.08,SE,135,3.0,21.0,53,0.00,,---,0.00,VWS V14.01,2013-01-19 05:09:00,
2013-01-19 00:14:00,29.0,13.6,30.08,WSW,248,5.0,21.0,52,0.00,,---,0.00,VWS V14.01,2013-01-19 05:14:00,
2013-01-19 00:19:00,29.0,13.6,30.07,SW,225,3.0,21.0,52,0.00,,---,0.00,VWS V14.01,2013-01-19 05:19:00,
2013-01-19 00:24:00,29.0,13.6,30.07,SW,225,5.0,13.0,52,0.00,,---,0.00,VWS V14.01,2013-01-19 05:24:00,
2013-01-19 00:29:00,30.0,14.5,30.07,WSW,248,4.0,13.0,52,0.00,,---,0.00,VWS V14.01,2013-01-19 05:29:00,
2013-01-19 00:34:00,30.0,14.5,30.07,SSW,202,6.0,13.0,52,0.00,,---,0.00,VWS V14.01,2013-01-19 05:34:00,
2013-01-19 00:39:00,30.0,14.1,30.07,SW,225,6.0,18.0,51,0.00,,---,0.00,VWS V14.01,2013-01-19 05:39:00,
2013-01-19 00:45:00,30.0,14.1,30.07,SSW,202,4.0,12.0,51,0.00,,---,0.00,VWS V14.01,2013-01-19 05:45:00,
2013-01-19 00:50:00,30.0,14.1,30.06,SW,225,10.0,14.0,51,0.00,,---,0.00,VWS V14.01,2013-01-19 05:50:00,
2013-01-19 00:55:00,30.0,14.1,30.06,WSW,248,7.0,14.0,51,0.00,,---,0.00,VWS V14.01,2013-01-19 05:55:00,
2013-01-19 01:00:00,31.0,15.0,30.07,WSW,248,11.0,12.0,51,0.00,,---,0.00,VWS V14.01,2013-01-19 06:00:00,
2013-01-19 01:05:00,31.0,15.0,30.06,SW,225,14.0,14.0,51,0.00,,---,0.00,VWS V14.01,2013-01-19 06:05:00,
2013-01-19 01:10:00,31.0,15.0,30.07,SW,225,6.0,15.0,51,0.00,,---,0.00,VWS V14.01,2013-01-19 06:10:00,
2013-01-19 01:15:00,31.0,14.6,30.06,South,180,6.0,15.0,50,0.00,,---,0.00,VWS V14.01,2013-01-19 06:15:00,
2013-01-19 01:20:00,31.0,14.6,30.06,SW,225,5.0,10.0,50,0.00,,---,0.00,VWS V14.01,2013-01-19 06:20:00,
2013-01-19 01:25:00,31.0,14.6,30.06,SSW,202,6.0,14.0,50,0.00,,---,0.00,VWS V14.01,2013-01-19 06:25:00,
2013-01-19 01:30:00,32.0,15.5,30.05,South,180,7.0,16.0,50,0.00,,---,0.00,VWS V14.01,2013-01-19 06:30:00,
2013-01-19 01:35:00,32.0,15.5,30.05,SW,225,5.0,16.0,50,0.00,,---,0.00,VWS V14.01,2013-01-19 06:35:00,
2013-01-19 01:40:00,32.0,15.5,30.06,SW,225,9.0,16.0,50,0.00,,---,0.00,VWS V14.01,2013-01-19 06:40:00,
2013-01-19 01:46:00,33.0,15.9,30.05,SW,225,17.0,23.0,49,0.00,,---,0.00,VWS V14.01,2013-01-19 06:46:00,
2013-01-19 01:51:00,33.0,15.9,30.06,WSW,248,15.0,23.0,49,0.00,,---,0.00,VWS V14.01,2013-01-19 06:51:00,
2013-01-19 01:57:00,33.0,15.9,30.06,SW,225,11.0,23.0,49,0.00,,---,0.00,VWS V14.01,2013-01-19 06:57:00,
2013-01-19 02:02:00,33.0,15.9,30.05,SW,225,13.0,16.0,49,0.00,,---,0.00,VWS V14.01,2013-01-19 07:02:00,
2013-01-19 02:07:00,34.0,16.4,30.05,SW,225,14.0,21.0,48,0.00,,---,0.00,VWS V14.01,2013-01-19 07:07:00,
2013-01-19 02:12:00,34.0,16.4,30.05,WSW,248,12.0,24.0,48,0.00,,---,0.00,VWS V14.01,2013-01-19 07:12:00,
2013-01-19 02:17:00,34.0,16.4,30.05,WSW,248,13.0,24.0,48,0.00,,---,0.00,VWS V14.01,2013-01-19 07:17:00,
2013-01-19 02:22:00,34.0,16.9,30.05,SSW,202,7.0,18.0,49,0.00,,---,0.00,VWS V14.01,2013-01-19 07:22:00,
2013-01-19 02:27:00,34.0,16.9,30.05,SSW,202,6.0,18.0,49,0.00,,---,0.00,VWS V14.01,2013-01-19 07:27:00,
2013-01-19 02:32:00,34.0,16.9,30.06,SW,225,22.0,24.0,49,0.00,,---,0.00,VWS V14.01,2013-01-19 07:32:00,
2013-01-19 02:37:00,34.0,16.9,30.05,West,270,12.0,24.0,49,0.00,,---,0.00,VWS V14.01,2013-01-19 07:37:00,
2013-01-19 02:42:00,34.0,16.9,30.05,WSW,248,11.0,22.0,49,0.00,,---,0.00,VWS V14.01,2013-01-19 07:42:00,
2013-01-19 02:47:00,34.0,17.3,30.05,SW,225,8.0,22.0,50,0.00,,---,0.00,VWS V14.01,2013-01-19 07:47:00,
2013-01-19 02:52:00,34.0,17.3,30.05,WSW,248,11.0,22.0,50,0.00,,---,0.00,VWS V14.01,2013-01-19 07:52:00,
2013-01-19 02:58:00,34.0,17.3,30.05,SW,225,5.0,22.0,50,0.00,,---,0.00,VWS V14.01,2013-01-19 07:58:00,
2013-01-19 03:03:00,34.0,17.8,30.05,SSW,202,8.0,15.0,51,0.00,,---,0.00,VWS V14.01,2013-01-19 08:03:00,
2013-01-19 03:08:00,34.0,17.3,30.05,SW,225,6.0,15.0,50,0.00,,---,0.00,VWS V14.01,2013-01-19 08:08:00,
2013-01-19 03:13:00,34.0,17.8,30.05,South,180,7.0,15.0,51,0.00,,---,0.00,VWS V14.01,2013-01-19 08:13:00,
2013-01-19 03:18:00,34.0,17.8,30.04,SW,225,11.0,21.0,51,0.00,,---,0.00,VWS V14.01,2013-01-19 08:18:00,
2013-01-19 03:23:00,34.0,17.8,30.04,SSE,158,10.0,13.0,51,0.00,,---,0.00,VWS V14.01,2013-01-19 08:23:00,
2013-01-19 03:28:00,34.0,17.8,30.04,SW,225,13.0,19.0,51,0.00,,---,0.00,VWS V14.01,2013-01-19 08:28:00,
2013-01-19 03:33:00,34.0,17.8,30.04,West,270,3.0,19.0,51,0.00,,---,0.00,VWS V14.01,2013-01-19 08:33:00,
2013-01-19 03:38:00,33.0,16.9,30.03,WSW,248,8.0,19.0,51,0.00,,---,0.00,VWS V14.01,2013-01-19 08:38:00,
2013-01-19 03:43:00,33.0,16.9,30.03,SW,225,5.0,11.0,51,0.00,,---,0.00,VWS V14.01,2013-01-19 08:43:00,
2013-01-19 03:49:00,33.0,17.3,30.04,WSW,248,8.0,11.0,52,0.00,,---,0.00,VWS V14.01,2013-01-19 08:49:00,
2013-01-19 03:54:00,33.0,17.3,30.04,SW,225,10.0,16.0,52,0.00,,---,0.00,VWS V14.01,2013-01-19 08:54:00,
2013-01-19 03:59:00,33.0,17.3,30.04,SW,225,4.0,16.0,52,0.00,,---,0.00,VWS V14.01,2013-01-19 08:59:00,
2013-01-19 04:04:00,33.0,17.3,30.03,SW,225,7.0,10.0,52,0.00,,---,0.00,VWS V14.01,2013-01-19 09:04:00,
2013-01-19 04:09:00,33.0,17.3,30.03,South,180,6.0,10.0,52,0.00,,---,0.00,VWS V14.01,2013-01-19 09:09:00,
2013-01-19 04:14:00,33.0,17.3,30.03,SSW,202,6.0,11.0,52,0.00,,---,0.00,VWS V14.01,2013-01-19 09:14:00,
2013-01-19 04:19:00,33.0,17.3,30.02,SW,225,10.0,13.0,52,0.00,,---,0.00,VWS V14.01,2013-01-19 09:19:00,
2013-01-19 04:24:00,33.0,17.8,30.02,WSW,248,3.0,12.0,53,0.00,,---,0.00,VWS V14.01,2013-01-19 09:24:00,
2013-01-19 04:29:00,33.0,17.8,30.02,SSW,202,4.0,14.0,53,0.00,,---,0.00,VWS V14.01,2013-01-19 09:29:00,
2013-01-19 04:34:00,33.0,17.3,30.02,SW,225,3.0,14.0,52,0.00,,---,0.00,VWS V14.01,2013-01-19 09:34:00,
2013-01-19 04:39:00,33.0,17.8,30.02,SW,225,5.0,14.0,53,0.00,,---,0.00,VWS V14.01,2013-01-19 09:39:00,
2013-01-19 04:44:00,34.0,18.7,30.02,SW,225,7.0,10.0,53,0.00,,---,0.00,VWS V14.01,2013-01-19 09:44:00,
2013-01-19 04:49:00,34.0,18.7,30.01,SSW,202,6.0,12.0,53,0.00,,---,0.00,VWS V14.01,2013-01-19 09:49:00,
2013-01-19 04:54:00,34.0,18.2,30.01,SW,225,7.0,12.0,52,0.00,,---,0.00,VWS V14.01,2013-01-19 09:54:00,
2013-01-19 04:59:00,34.0,18.2,30.01,WSW,248,10.0,13.0,52,0.00,,---,0.00,VWS V14.01,2013-01-19 09:59:00,
2013-01-19 05:05:00,35.0,19.2,30.02,SW,225,8.0,14.0,52,0.00,,---,0.00,VWS V14.01,2013-01-19 10:05:00,
2013-01-19 05:10:00,35.0,18.7,30.01,WSW,248,10.0,14.0,51,0.00,,---,0.00,VWS V14.01,2013-01-19 10:10:00,
2013-01-19 05:15:00,35.0,18.7,30.01,WSW,248,10.0,19.0,51,0.00,,---,0.00,VWS V14.01,2013-01-19 10:15:00,
2013-01-19 05:20:00,35.0,18.2,30.02,WSW,248,11.0,13.0,50,0.00,,---,0.00,VWS V14.01,2013-01-19 10:20:00,
2013-01-19 05:25:00,35.0,18.2,30.01,SSW,202,6.0,14.0,50,0.00,,---,0.00,VWS V14.01,2013-01-19 10:25:00,
2013-01-19 05:30:00,35.0,18.2,30.02,SW,225,5.0,17.0,50,0.00,,---,0.00,VWS V14.01,2013-01-19 10:30:00,
2013-01-19 05:35:00,36.0,19.2,30.02,SSE,158,6.0,17.0,50,0.00,,---,0.00,VWS V14.01,2013-01-19 10:35:00,
2013-01-19 05:40:00,35.0,18.7,30.01,WSW,248,6.0,8.0,51,0.00,,---,0.00,VWS V14.01,2013-01-19 10:40:00,
2013-01-19 05:45:00,36.0,19.2,30.01,SSW,202,5.0,15.0,50,0.00,,---,0.00,VWS V14.01,2013-01-19 10:45:00,
2013-01-19 05:51:00,35.0,18.7,30.02,SW,225,5.0,15.0,51,0.00,,---,0.00,VWS V14.01,2013-01-19 10:51:00,
2013-01-19 05:56:00,35.0,18.7,30.01,SW,225,7.0,15.0,51,0.00,,---,0.00,VWS V14.01,2013-01-19 10:56:00,
2013-01-19 06:01:00,35.0,18.7,30.01,SW,225,5.0,10.0,51,0.00,,---,0.00,VWS V14.01,2013-01-19 11:01:00,
2013-01-19 06:06:00,35.0,18.7,30.02,WSW,248,12.0,16.0,51,0.00,,---,0.00,VWS V14.01,2013-01-19 11:06:00,
2013-01-19 06:11:00,35.0,18.7,30.02,SW,225,10.0,16.0,51,0.00,,---,0.00,VWS V14.01,2013-01-19 11:11:00,
2013-01-19 07:47:00,35.0,19.2,30.00,SW,225,8.0,15.0,52,0.00,,---,0.00,VWS V14.01,2013-01-19 12:47:00,
2013-01-19 07:48:00,35.0,19.2,30.00,SW,225,13.0,18.0,52,0.00,,---,0.00,VWS V14.01,2013-01-19 12:48:00,
2013-01-19 07:49:00,35.0,19.2,30.00,SW,225,11.0,18.0,52,0.00,,---,0.00,VWS V14.01,2013-01-19 12:49:00,
2013-01-19 07:54:00,35.0,19.2,30.00,WSW,248,10.0,18.0,52,0.00,,---,0.00,VWS V14.01,2013-01-19 12:54:00,
2013-01-19 07:59:00,35.0,19.2,30.01,SW,225,15.0,21.0,52,0.00,,---,0.00,VWS V14.01,2013-01-19 12:59:00,
2013-01-19 08:04:00,35.0,19.2,30.00,West,270,9.0,17.0,52,0.00,,---,0.00,VWS V14.01,2013-01-19 13:04:00,
2013-01-19 08:09:00,35.0,19.6,30.00,SW,225,10.0,21.0,53,0.00,,---,0.00,VWS V14.01,2013-01-19 13:09:00,
2013-01-19 08:14:00,35.0,19.6,30.00,SW,225,14.0,21.0,53,0.00,,---,0.00,VWS V14.01,2013-01-19 13:14:00,
2013-01-19 08:19:00,35.0,19.6,30.00,SSW,202,11.0,21.0,53,0.00,,---,0.00,VWS V14.01,2013-01-19 13:19:00,
2013-01-19 08:24:00,35.0,19.6,30.00,SW,225,9.0,21.0,53,0.00,,---,0.00,VWS V14.01,2013-01-19 13:24:00,
2013-01-19 08:29:00,35.0,19.6,30.00,SW,225,15.0,21.0,53,0.00,,---,0.00,VWS V14.01,2013-01-19 13:29:00,
2013-01-19 08:34:00,35.0,20.0,30.00,SW,225,8.0,21.0,54,0.00,,---,0.00,VWS V14.01,2013-01-19 13:34:00,
2013-01-19 08:39:00,35.0,19.6,30.00,SW,225,10.0,21.0,53,0.00,,---,0.00,VWS V14.01,2013-01-19 13:39:00,
2013-01-19 08:45:00,35.0,19.6,30.00,WSW,248,6.0,21.0,53,0.00,,---,0.00,VWS V14.01,2013-01-19 13:45:00,
2013-01-19 08:50:00,36.0,20.5,30.00,SW,225,16.0,21.0,53,0.00,,---,0.00,VWS V14.01,2013-01-19 13:50:00,
2013-01-19 08:55:00,36.0,20.5,30.00,WSW,248,13.0,26.0,53,0.00,,---,0.00,VWS V14.01,2013-01-19 13:55:00,
2013-01-19 09:00:00,36.0,20.5,30.00,SSW,202,10.0,11.0,53,0.00,,---,0.00,VWS V14.01,2013-01-19 14:00:00,
2013-01-19 09:05:00,36.0,20.5,30.00,SSW,202,9.0,17.0,53,0.00,,---,0.00,VWS V14.01,2013-01-19 14:05:00,
2013-01-19 09:10:00,36.0,20.1,30.00,SSW,202,15.0,19.0,52,0.00,,---,0.00,VWS V14.01,2013-01-19 14:10:00,
2013-01-19 09:15:00,37.0,20.6,30.00,SW,225,13.0,23.0,51,0.00,,---,0.00,VWS V14.01,2013-01-19 14:15:00,
2013-01-19 09:20:00,37.0,21.0,30.00,WSW,248,10.0,19.0,52,0.00,,---,0.00,VWS V14.01,2013-01-19 14:20:00,
2013-01-19 09:26:00,37.0,20.6,30.00,WSW,248,7.0,21.0,51,0.00,,---,0.00,VWS V14.01,2013-01-19 14:26:00,
2013-01-19 09:31:00,37.0,20.6,30.00,SW,225,8.0,21.0,51,0.00,,---,0.00,VWS V14.01,2013-01-19 14:31:00,
2013-01-19 09:36:00,37.0,20.6,30.00,SW,225,9.0,21.0,51,0.00,,---,0.00,VWS V14.01,2013-01-19 14:36:00,
2013-01-19 09:41:00,38.0,21.5,30.00,WSW,248,14.0,18.0,51,0.00,,---,0.00,VWS V14.01,2013-01-19 14:41:00,
2013-01-19 09:46:00,38.0,21.5,30.00,South,180,8.0,19.0,51,0.00,,---,0.00,VWS V14.01,2013-01-19 14:46:00,
2013-01-19 09:52:00,38.0,21.0,30.00,WSW,248,13.0,21.0,50,0.00,,---,0.00,VWS V14.01,2013-01-19 14:52:00,
2013-01-19 09:57:00,38.0,21.5,30.00,WSW,248,8.0,24.0,51,0.00,,---,0.00,VWS V14.01,2013-01-19 14:57:00,
2013-01-19 10:02:00,39.0,22.4,30.01,WSW,248,9.0,15.0,51,0.00,,---,0.00,VWS V14.01,2013-01-19 15:02:00,
2013-01-19 10:07:00,39.0,22.0,30.01,WSW,248,13.0,17.0,50,0.00,,---,0.00,VWS V14.01,2013-01-19 15:07:00,
2013-01-19 10:12:00,39.0,22.4,30.01,SW,225,10.0,19.0,51,0.00,,---,0.00,VWS V14.01,2013-01-19 15:12:00,
2013-01-19 10:17:00,39.0,22.0,30.01,WSW,248,14.0,24.0,50,0.00,,---,0.00,VWS V14.01,2013-01-19 15:17:00,
2013-01-19 10:22:00,39.0,21.5,30.01,WSW,248,13.0,20.0,49,0.00,,---,0.00,VWS V14.01,2013-01-19 15:22:00,
2013-01-19 10:27:00,40.0,22.9,30.01,WSW,248,8.0,20.0,50,0.00,,---,0.00,VWS V14.01,2013-01-19 15:27:00,
2013-01-19 10:32:00,40.0,22.4,30.01,SW,225,13.0,21.0,49,0.00,,---,0.00,VWS V14.01,2013-01-19 15:32:00,
2013-01-19 10:37:00,40.0,22.4,30.00,WSW,248,11.0,23.0,49,0.00,,---,0.00,VWS V14.01,2013-01-19 15:37:00,
2013-01-19 10:43:00,40.0,22.4,30.01,WSW,248,16.0,25.0,49,0.00,,---,0.00,VWS V14.01,2013-01-19 15:43:00,
2013-01-19 10:48:00,41.0,23.3,30.00,WSW,248,18.0,25.0,49,0.00,,---,0.00,VWS V14.01,2013-01-19 15:48:00,
2013-01-19 10:53:00,41.0,23.3,30.00,SW,225,21.0,25.0,49,0.00,,---,0.00,VWS V14.01,2013-01-19 15:53:00,
2013-01-19 10:58:00,41.0,23.3,30.01,SW,225,21.0,26.0,49,0.00,,---,0.00,VWS V14.01,2013-01-19 15:58:00,
2013-01-19 11:03:00,40.0,22.9,30.01,SW,225,22.0,27.0,50,0.00,,---,0.00,VWS V14.01,2013-01-19 16:03:00,
2013-01-19 11:08:00,41.0,24.3,30.01,WSW,248,12.0,27.0,51,0.00,,---,0.00,VWS V14.01,2013-01-19 16:08:00,
2013-01-19 11:14:00,41.0,23.8,30.01,SW,225,15.0,27.0,50,0.00,,---,0.00,VWS V14.01,2013-01-19 16:14:00,
2013-01-19 11:19:00,41.0,23.8,30.01,WSW,248,11.0,27.0,50,0.00,,---,0.00,VWS V14.01,2013-01-19 16:19:00,
2013-01-19 11:24:00,41.0,24.3,30.00,WSW,248,12.0,23.0,51,0.00,,---,0.00,VWS V14.01,2013-01-19 16:24:00,
2013-01-19 11:29:00,41.0,23.8,30.00,SW,225,12.0,23.0,50,0.00,,---,0.00,VWS V14.01,2013-01-19 16:29:00,
2013-01-19 11:34:00,42.0,24.7,29.99,WSW,248,14.0,23.0,50,0.00,,---,0.00,VWS V14.01,2013-01-19 16:34:00,
2013-01-19 11:39:00,42.0,24.2,29.99,SW,225,14.0,23.0,49,0.00,,---,0.00,VWS V14.01,2013-01-19 16:39:00,
2013-01-19 11:44:00,42.0,24.2,29.98,West,270,13.0,21.0,49,0.00,,---,0.00,VWS V14.01,2013-01-19 16:44:00,
2013-01-19 11:49:00,42.0,24.2,29.98,West,270,13.0,24.0,49,0.00,,---,0.00,VWS V14.01,2013-01-19 16:49:00,
2013-01-19 11:54:00,43.0,25.6,29.97,WSW,248,10.0,24.0,50,0.00,,---,0.00,VWS V14.01,2013-01-19 16:54:00,
2013-01-19 11:59:00,43.0,25.2,29.97,West,270,10.0,24.0,49,0.00,,---,0.00,VWS V14.01,2013-01-19 16:59:00,
2013-01-19 12:04:00,43.0,25.2,29.96,SW,225,18.0,23.0,49,0.00,,---,0.00,VWS V14.01,2013-01-19 17:04:00,
2013-01-19 12:09:00,43.0,25.2,29.96,SW,225,16.0,24.0,49,0.00,,---,0.00,VWS V14.01,2013-01-19 17:09:00,
2013-01-19 12:15:00,43.0,25.2,29.96,WSW,248,17.0,24.0,49,0.00,,---,0.00,VWS V14.01,2013-01-19 17:15:00,
2013-01-19 12:20:00,43.0,25.2,29.96,SW,225,12.0,14.0,49,0.00,,---,0.00,VWS V14.01,2013-01-19 17:20:00,
2013-01-19 12:25:00,43.0,24.7,29.95,WSW,248,13.0,24.0,48,0.00,,---,0.00,VWS V14.01,2013-01-19 17:25:00,
2013-01-19 12:31:00,43.0,25.2,29.95,SW,225,14.0,27.0,49,0.00,,---,0.00,VWS V14.01,2013-01-19 17:31:00,
2013-01-19 12:36:00,43.0,25.2,29.95,WNW,292,6.0,27.0,49,0.00,,---,0.00,VWS V14.01,2013-01-19 17:36:00,
2013-01-19 12:41:00,44.0,25.6,29.94,South,180,12.0,16.0,48,0.00,,---,0.00,VWS V14.01,2013-01-19 17:41:00,
2013-01-19 12:46:00,44.0,26.1,29.94,SW,225,11.0,18.0,49,0.00,,---,0.00,VWS V14.01,2013-01-19 17:46:00,
2013-01-19 12:51:00,44.0,25.1,29.94,SW,225,13.0,20.0,47,0.00,,---,0.00,VWS V14.01,2013-01-19 17:51:00,
2013-01-19 12:57:00,44.0,25.1,29.94,SSW,202,14.0,22.0,47,0.00,,---,0.00,VWS V14.01,2013-01-19 17:57:00,
2013-01-19 13:03:00,45.0,27.0,29.93,SSW,202,8.0,19.0,49,0.00,,---,0.00,VWS V14.01,2013-01-19 18:03:00,
2013-01-19 13:08:00,45.0,26.5,29.93,WSW,248,11.0,19.0,48,0.00,,---,0.00,VWS V14.01,2013-01-19 18:08:00,
2013-01-19 13:13:00,45.0,25.5,29.93,SSW,202,10.0,19.0,46,0.00,,---,0.00,VWS V14.01,2013-01-19 18:13:00,
2013-01-19 13:18:00,45.0,25.5,29.93,WSW,248,11.0,19.0,46,0.00,,---,0.00,VWS V14.01,2013-01-19 18:18:00,
2013-01-19 13:23:00,45.0,26.0,29.93,SW,225,11.0,16.0,47,0.00,,---,0.00,VWS V14.01,2013-01-19 18:23:00,
2013-01-19 13:28:00,45.0,25.5,29.92,SW,225,13.0,22.0,46,0.00,,---,0.00,VWS V14.01,2013-01-19 18:28:00,
2013-01-19 13:33:00,45.0,25.5,29.92,SW,225,13.0,23.0,46,0.00,,---,0.00,VWS V14.01,2013-01-19 18:33:00,
2013-01-19 13:39:00,45.0,25.5,29.92,SW,225,15.0,24.0,46,0.00,,---,0.00,VWS V14.01,2013-01-19 18:39:00,
2013-01-19 13:44:00,45.0,25.5,29.91,WSW,248,12.0,18.0,46,0.00,,---,0.00,VWS V14.01,2013-01-19 18:44:00,
2013-01-19 13:49:00,45.0,26.5,29.91,South,180,5.0,18.0,48,0.00,,---,0.00,VWS V14.01,2013-01-19 18:49:00,
2013-01-19 13:54:00,45.0,25.5,29.91,SW,225,11.0,21.0,46,0.00,,---,0.00,VWS V14.01,2013-01-19 18:54:00,
2013-01-19 13:59:00,45.0,26.0,29.91,SW,225,8.0,21.0,47,0.00,,---,0.00,VWS V14.01,2013-01-19 18:59:00,
2013-01-19 14:04:00,45.0,26.0,29.90,WSW,248,8.0,21.0,47,0.00,,---,0.00,VWS V14.01,2013-01-19 19:04:00,
2013-01-19 14:10:00,45.0,26.0,29.90,SSW,202,14.0,21.0,47,0.00,,---,0.00,VWS V14.01,2013-01-19 19:10:00,
2013-01-19 14:15:00,45.0,26.0,29.90,SW,225,18.0,21.0,47,0.00,,---,0.00,VWS V14.01,2013-01-19 19:15:00,
2013-01-19 14:20:00,45.0,26.0,29.90,WSW,248,10.0,22.0,47,0.00,,---,0.00,VWS V14.01,2013-01-19 19:20:00,
2013-01-19 14:25:00,46.0,26.4,29.89,SW,225,6.0,18.0,46,0.00,,---,0.00,VWS V14.01,2013-01-19 19:25:00,
2013-01-19 14:30:00,46.0,26.4,29.89,WSW,248,9.0,19.0,46,0.00,,---,0.00,VWS V14.01,2013-01-19 19:30:00,
2013-01-19 14:35:00,45.0,25.5,29.89,SW,225,10.0,19.0,46,0.00,,---,0.00,VWS V14.01,2013-01-19 19:35:00,
2013-01-19 14:40:00,45.0,25.5,29.89,SW,225,6.0,12.0,46,0.00,,---,0.00,VWS V14.01,2013-01-19 19:40:00,
2013-01-19 14:46:00,46.0,26.4,29.88,SW,225,7.0,14.0,46,0.00,,---,0.00,VWS V14.01,2013-01-19 19:46:00,
2013-01-19 14:51:00,46.0,25.9,29.88,SW,225,10.0,16.0,45,0.00,,---,0.00,VWS V14.01,2013-01-19 19:51:00,
2013-01-19 14:56:00,46.0,25.9,29.88,West,270,9.0,17.0,45,0.00,,---,0.00,VWS V14.01,2013-01-19 19:56:00,
2013-01-19 15:01:00,47.0,26.8,29.88,WSW,248,12.0,14.0,45,0.00,,---,0.00,VWS V14.01,2013-01-19 20:01:00,
2013-01-19 15:06:00,46.0,25.3,29.87,WSW,248,8.0,18.0,44,0.00,,---,0.00,VWS V14.01,2013-01-19 20:06:00,
2013-01-19 15:11:00,47.0,26.2,29.87,South,180,9.0,18.0,44,0.00,,---,0.00,VWS V14.01,2013-01-19 20:11:00,
2013-01-19 15:17:00,48.0,27.7,29.86,WSW,248,5.0,18.0,45,0.00,,---,0.00,VWS V14.01,2013-01-19 20:17:00,
2013-01-19 15:22:00,48.0,26.6,29.86,SW,225,6.0,15.0,43,0.00,,---,0.00,VWS V14.01,2013-01-19 20:22:00,
2013-01-19 15:27:00,47.0,26.2,29.86,SSW,202,6.0,16.0,44,0.00,,---,0.00,VWS V14.01,2013-01-19 20:27:00,
2013-01-19 15:32:00,47.0,26.2,29.85,SSE,158,7.0,16.0,44,0.00,,---,0.00,VWS V14.01,2013-01-19 20:32:00,
2013-01-19 15:37:00,48.0,27.1,29.85,SSW,202,8.0,16.0,44,0.00,,---,0.00,VWS V14.01,2013-01-19 20:37:00,
2013-01-19 15:43:00,48.0,26.6,29.84,WSW,248,9.0,16.0,43,0.00,,---,0.00,VWS V14.01,2013-01-19 20:43:00,
2013-01-19 15:48:00,48.0,27.1,29.84,WSW,248,11.0,16.0,44,0.00,,---,0.00,VWS V14.01,2013-01-19 20:48:00,
2013-01-19 15:53:00,48.0,26.6,29.84,SW,225,9.0,16.0,43,0.00,,---,0.00,VWS V14.01,2013-01-19 20:53:00,
2013-01-19 15:58:00,48.0,27.1,29.84,South,180,8.0,18.0,44,0.00,,---,0.00,VWS V14.01,2013-01-19 20:58:00,
2013-01-19 16:03:00,48.0,27.1,29.84,WSW,248,6.0,17.0,44,0.00,,---,0.00,VWS V14.01,2013-01-19 21:03:00,
2013-01-19 16:08:00,48.0,26.6,29.84,South,180,7.0,21.0,43,0.00,,---,0.00,VWS V14.01,2013-01-19 21:08:00,
2013-01-19 16:14:00,48.0,26.6,29.84,SW,225,13.0,25.0,43,0.00,,---,0.00,VWS V14.01,2013-01-19 21:14:00,
2013-01-19 16:19:00,48.0,26.6,29.83,West,270,5.0,25.0,43,0.00,,---,0.00,VWS V14.01,2013-01-19 21:19:00,
2013-01-19 16:24:00,48.0,26.6,29.83,SW,225,10.0,22.0,43,0.00,,---,0.00,VWS V14.01,2013-01-19 21:24:00,
2013-01-19 16:29:00,48.0,26.6,29.83,WSW,248,8.0,22.0,43,0.00,,---,0.00,VWS V14.01,2013-01-19 21:29:00,
2013-01-19 16:34:00,48.0,26.6,29.82,SSW,202,6.0,22.0,43,0.00,,---,0.00,VWS V14.01,2013-01-19 21:34:00,
2013-01-19 16:39:00,48.0,26.6,29.82,South,180,14.0,22.0,43,0.00,,---,0.00,VWS V14.01,2013-01-19 21:39:00,
2013-01-19 16:45:00,47.0,26.2,29.82,SSE,158,5.0,16.0,44,0.00,,---,0.00,VWS V14.01,2013-01-19 21:45:00,
2013-01-19 16:50:00,47.0,25.7,29.81,SW,225,9.0,16.0,43,0.00,,---,0.00,VWS V14.01,2013-01-19 21:50:00,
2013-01-19 16:55:00,47.0,26.2,29.81,SW,225,6.0,16.0,44,0.00,,---,0.00,VWS V14.01,2013-01-19 21:55:00,
2013-01-19 17:00:00,46.0,25.3,29.81,SSE,158,5.0,11.0,44,0.00,,---,0.00,VWS V14.01,2013-01-19 22:00:00,
2013-01-19 17:06:00,46.0,25.3,29.80,SSW,202,8.0,16.0,44,0.00,,---,0.00,VWS V14.01,2013-01-19 22:06:00,
2013-01-19 17:11:00,46.0,25.3,29.80,South,180,11.0,16.0,44,0.00,,---,0.00,VWS V14.01,2013-01-19 22:11:00,
2013-01-19 17:16:00,46.0,25.3,29.80,SSW,202,10.0,20.0,44,0.00,,---,0.00,VWS V14.01,2013-01-19 22:16:00,
2013-01-19 17:21:00,46.0,25.3,29.79,SSW,202,9.0,10.0,44,0.00,,---,0.00,VWS V14.01,2013-01-19 22:21:00,
2013-01-19 17:27:00,46.0,24.8,29.79,SW,225,7.0,15.0,43,0.00,,---,0.00,VWS V14.01,2013-01-19 22:27:00,
2013-01-19 17:32:00,46.0,24.8,29.79,SSE,158,6.0,15.0,43,0.00,,---,0.00,VWS V14.01,2013-01-19 22:32:00,
2013-01-19 17:37:00,45.0,23.9,29.79,South,180,7.0,19.0,43,0.00,,---,0.00,VWS V14.01,2013-01-19 22:37:00,
2013-01-19 17:42:00,45.0,23.3,29.78,SSW,202,12.0,16.0,42,0.00,,---,0.00,VWS V14.01,2013-01-19 22:42:00,
2013-01-19 17:47:00,46.0,23.6,29.78,SW,225,7.0,18.0,41,0.00,,---,0.00,VWS V14.01,2013-01-19 22:47:00,
2013-01-19 17:53:00,45.0,22.7,29.77,SSW,202,7.0,18.0,41,0.00,,---,0.00,VWS V14.01,2013-01-19 22:53:00,
2013-01-19 17:58:00,45.0,22.7,29.77,South,180,11.0,18.0,41,0.00,,---,0.00,VWS V14.01,2013-01-19 22:58:00,
2013-01-19 18:03:00,45.0,22.7,29.77,South,180,10.0,10.0,41,0.00,,---,0.00,VWS V14.01,2013-01-19 23:03:00,
2013-01-19 18:08:00,45.0,23.3,29.77,South,180,10.0,18.0,42,0.00,,---,0.00,VWS V14.01,2013-01-19 23:08:00,
2013-01-19 18:13:00,45.0,22.7,29.77,SW,225,8.0,19.0,41,0.00,,---,0.00,VWS V14.01,2013-01-19 23:13:00,
2013-01-19 18:18:00,45.0,22.7,29.77,SSW,202,6.0,21.0,41,0.00,,---,0.00,VWS V14.01,2013-01-19 23:18:00,
2013-01-19 18:23:00,45.0,22.7,29.76,South,180,5.0,19.0,41,0.00,,---,0.00,VWS V14.01,2013-01-19 23:23:00,
2013-01-19 18:29:00,45.0,22.1,29.77,SSE,158,8.0,20.0,40,0.00,,---,0.00,VWS V14.01,2013-01-19 23:29:00,
2013-01-19 18:34:00,45.0,22.1,29.76,SSE,158,10.0,20.0,40,0.00,,---,0.00,VWS V14.01,2013-01-19 23:34:00,
2013-01-19 18:39:00,45.0,22.1,29.77,SW,225,6.0,20.0,40,0.00,,---,0.00,VWS V14.01,2013-01-19 23:39:00,
2013-01-19 18:44:00,45.0,22.1,29.77,SSW,202,10.0,13.0,40,0.00,,---,0.00,VWS V14.01,2013-01-19 23:44:00,
2013-01-19 18:49:00,45.0,21.5,29.77,SW,225,10.0,13.0,39,0.00,,---,0.00,VWS V14.01,2013-01-19 23:49:00,
2013-01-19 18:54:00,45.0,21.5,29.78,WSW,248,3.0,17.0,39,0.00,,---,0.00,VWS V14.01,2013-01-19 23:54:00,
2013-01-19 18:59:00,45.0,21.5,29.78,WSW,248,8.0,17.0,39,0.00,,---,0.00,VWS V14.01,2013-01-19 23:59:00,
2013-01-19 19:04:00,45.0,21.5,29.77,SSW,202,1.0,11.0,39,0.00,,---,0.00,VWS V14.01,2013-01-20 00:04:00,
2013-01-19 19:09:00,45.0,20.9,29.77,SSW,202,18.0,18.0,38,0.00,,---,0.00,VWS V14.01,2013-01-20 00:09:00,
2013-01-19 19:14:00,45.0,20.9,29.77,South,180,8.0,19.0,38,0.00,,---,0.00,VWS V14.01,2013-01-20 00:14:00,
2013-01-19 19:19:00,45.0,20.9,29.77,SW,225,10.0,19.0,38,0.00,,---,0.00,VWS V14.01,2013-01-20 00:19:00,
2013-01-19 19:24:00,45.0,20.9,29.77,SSW,202,9.0,26.0,38,0.00,,---,0.00,VWS V14.01,2013-01-20 00:24:00,
2013-01-19 19:29:00,45.0,20.9,29.77,SW,225,16.0,26.0,38,0.00,,---,0.00,VWS V14.01,2013-01-20 00:29:00,
2013-01-19 19:34:00,45.0,20.3,29.77,WSW,248,11.0,26.0,37,0.00,,---,0.00,VWS V14.01,2013-01-20 00:34:00,
2013-01-19 19:40:00,45.0,20.9,29.77,SSW,202,5.0,26.0,38,0.00,,---,0.00,VWS V14.01,2013-01-20 00:40:00,
2013-01-19 19:45:00,45.0,20.9,29.77,SW,225,10.0,15.0,38,0.00,,---,0.00,VWS V14.01,2013-01-20 00:45:00,
2013-01-19 19:50:00,45.0,20.9,29.77,SW,225,8.0,19.0,38,0.00,,---,0.00,VWS V14.01,2013-01-20 00:50:00,
2013-01-19 19:55:00,45.0,20.9,29.77,SW,225,5.0,22.0,38,0.00,,---,0.00,VWS V14.01,2013-01-20 00:55:00,
2013-01-19 20:00:00,45.0,20.9,29.77,West,270,5.0,13.0,38,0.00,,---,0.00,VWS V14.01,2013-01-20 01:00:00,
2013-01-19 20:06:00,45.0,21.5,29.77,WSW,248,13.0,16.0,39,0.00,,---,0.00,VWS V14.01,2013-01-20 01:06:00,
2013-01-19 20:11:00,45.0,21.5,29.77,WSW,248,7.0,16.0,39,0.00,,---,0.00,VWS V14.01,2013-01-20 01:11:00,
2013-01-19 20:17:00,45.0,21.5,29.77,SW,225,12.0,16.0,39,0.00,,---,0.00,VWS V14.01,2013-01-20 01:17:00,
2013-01-19 20:22:00,45.0,22.1,29.76,SW,225,8.0,13.0,40,0.00,,---,0.00,VWS V14.01,2013-01-20 01:22:00,
2013-01-19 20:27:00,45.0,21.5,29.76,WSW,248,6.0,24.0,39,0.00,,---,0.00,VWS V14.01,2013-01-20 01:27:00,
2013-01-19 20:32:00,45.0,22.1,29.76,SW,225,8.0,24.0,40,0.00,,---,0.00,VWS V14.01,2013-01-20 01:32:00,
2013-01-19 20:37:00,45.0,22.1,29.76,SW,225,9.0,24.0,40,0.00,,---,0.00,VWS V14.01,2013-01-20 01:37:00,
2013-01-19 20:43:00,45.0,22.1,29.76,SW,225,11.0,14.0,40,0.00,,---,0.00,VWS V14.01,2013-01-20 01:43:00,
2013-01-19 20:48:00,45.0,22.7,29.75,WSW,248,18.0,21.0,41,0.00,,---,0.00,VWS V14.01,2013-01-20 01:48:00,
2013-01-19 20:53:00,45.0,22.7,29.75,WSW,248,9.0,21.0,41,0.00,,---,0.00,VWS V14.01,2013-01-20 01:53:00,
2013-01-19 20:58:00,45.0,22.7,29.75,SSW,202,12.0,23.0,41,0.00,,---,0.00,VWS V14.01,2013-01-20 01:58:00,
2013-01-19 21:03:00,45.0,22.7,29.74,South,180,8.0,19.0,41,0.00,,---,0.00,VWS V14.01,2013-01-20 02:03:00,
2013-01-19 21:08:00,45.0,22.7,29.74,SW,225,13.0,19.0,41,0.00,,---,0.00,VWS V14.01,2013-01-20 02:08:00,
2013-01-19 21:14:00,45.0,22.7,29.74,South,180,16.0,20.0,41,0.00,,---,0.00,VWS V14.01,2013-01-20 02:14:00,
2013-01-19 21:19:00,45.0,22.7,29.74,SW,225,7.0,21.0,41,0.00,,---,0.00,VWS V14.01,2013-01-20 02:19:00,
2013-01-19 21:24:00,45.0,22.7,29.73,SW,225,11.0,20.0,41,0.00,,---,0.00,VWS V14.01,2013-01-20 02:24:00,
2013-01-19 21:29:00,45.0,22.7,29.74,SW,225,10.0,21.0,41,0.00,,---,0.00,VWS V14.01,2013-01-20 02:29:00,
2013-01-19 21:34:00,45.0,22.7,29.73,WSW,248,15.0,21.0,41,0.00,,---,0.00,VWS V14.01,2013-01-20 02:34:00,
2013-01-19 21:39:00,45.0,22.7,29.73,SW,225,6.0,22.0,41,0.00,,---,0.00,VWS V14.01,2013-01-20 02:39:00,
2013-01-19 21:44:00,45.0,22.7,29.72,WSW,248,14.0,23.0,41,0.00,,---,0.00,VWS V14.01,2013-01-20 02:44:00,
2013-01-19 21:49:00,45.0,22.7,29.72,SW,225,14.0,25.0,41,0.00,,---,0.00,VWS V14.01,2013-01-20 02:49:00,
2013-01-19 21:54:00,45.0,23.3,29.73,SW,225,12.0,25.0,42,0.00,,---,0.00,VWS V14.01,2013-01-20 02:54:00,
2013-01-19 21:59:00,45.0,23.3,29.72,SW,225,16.0,25.0,42,0.00,,---,0.00,VWS V14.01,2013-01-20 02:59:00,
2013-01-19 22:05:00,45.0,23.3,29.72,WNW,292,13.0,25.0,42,0.00,,---,0.00,VWS V14.01,2013-01-20 03:05:00,
2013-01-19 22:10:00,45.0,23.3,29.71,South,180,13.0,25.0,42,0.00,,---,0.00,VWS V14.01,2013-01-20 03:10:00,
2013-01-19 22:15:00,45.0,23.3,29.71,SW,225,12.0,25.0,42,0.00,,---,0.00,VWS V14.01,2013-01-20 03:15:00,
2013-01-19 22:20:00,44.0,23.0,29.71,SSW,202,13.0,15.0,43,0.00,,---,0.00,VWS V14.01,2013-01-20 03:20:00,
2013-01-19 22:25:00,45.0,23.3,29.70,SSW,202,14.0,32.0,42,0.00,,---,0.00,VWS V14.01,2013-01-20 03:25:00,
2013-01-19 22:31:00,45.0,23.3,29.70,WSW,248,14.0,32.0,42,0.00,,---,0.00,VWS V14.01,2013-01-20 03:31:00,
2013-01-19 22:36:00,44.0,23.0,29.70,WSW,248,17.0,32.0,43,0.00,,---,0.00,VWS V14.01,2013-01-20 03:36:00,
2013-01-19 22:41:00,44.0,23.0,29.69,SW,225,7.0,11.0,43,0.00,,---,0.00,VWS V14.01,2013-01-20 03:41:00,
2013-01-19 22:46:00,45.0,23.9,29.69,SW,225,16.0,24.0,43,0.00,,---,0.00,VWS V14.01,2013-01-20 03:46:00,
2013-01-19 22:52:00,44.0,23.0,29.69,WSW,248,11.0,24.0,43,0.00,,---,0.00,VWS V14.01,2013-01-20 03:52:00,
2013-01-19 22:57:00,44.0,23.0,29.69,SW,225,10.0,24.0,43,0.00,,---,0.00,VWS V14.01,2013-01-20 03:57:00,
2013-01-19 23:02:00,44.0,23.0,29.68,SW,225,11.0,23.0,43,0.00,,---,0.00,VWS V14.01,2013-01-20 04:02:00,
2013-01-19 23:07:00,45.0,23.9,29.68,SSW,202,19.0,29.0,43,0.00,,---,0.00,VWS V14.01,2013-01-20 04:07:00,
2013-01-19 23:12:00,45.0,23.9,29.68,WSW,248,7.0,29.0,43,0.00,,---,0.00,VWS V14.01,2013-01-20 04:12:00,
2013-01-19 23:17:00,45.0,24.4,29.68,SW,225,11.0,29.0,44,0.00,,---,0.00,VWS V14.01,2013-01-20 04:17:00,
2013-01-19 23:23:00,45.0,23.9,29.67,SSW,202,9.0,28.0,43,0.00,,---,0.00,VWS V14.01,2013-01-20 04:23:00,
2013-01-19 23:28:00,45.0,23.9,29.67,SSW,202,12.0,28.0,43,0.00,,---,0.00,VWS V14.01,2013-01-20 04:28:00,
2013-01-19 23:33:00,45.0,23.9,29.67,SW,225,11.0,28.0,43,0.00,,---,0.00,VWS V14.01,2013-01-20 04:33:00,
2013-01-19 23:38:00,45.0,24.4,29.67,SW,225,13.0,28.0,44,0.00,,---,0.00,VWS V14.01,2013-01-20 04:38:00,
2013-01-19 23:43:00,45.0,24.4,29.66,SW,225,27.0,29.0,44,0.00,,---,0.00,VWS V14.01,2013-01-20 04:43:00,
2013-01-19 23:48:00,45.0,24.4,29.66,WSW,248,8.0,29.0,44,0.00,,---,0.00,VWS V14.01,2013-01-20 04:48:00,
2013-01-19 23:53:00,44.0,24.0,29.66,SW,225,15.0,29.0,45,0.00,,---,0.00,VWS V14.01,2013-01-20 04:53:00,
2013-01-19 23:59:00,45.0,24.4,29.65,SW,225,13.0,29.0,44,0.00,,---,0.00,VWS V14.01,2013-01-20 04:59:00,